This demonstration page uses our WeatherBlox Daily Observations layout. Learn more.

40.92945, -100.16068

Hourly Observations for January 8, 2017

Temp ( °F °C ) Dew Point ( °F °C ) Humidity (%) Winds ( mph kmh ) Pressure ( in mb ) Visibility ( mi km ) Precip ( " mm )
12:15 am 00:15 Clear 8 -13.5 3 -16 82 82 SE 8 13 30.68 1039 10 16.0934 0 0
12:35 am 00:35 Clear 8 -13.3 4 -15.7 82 82 SE 8 13 30.65 1038 10 16.0934 0 0
12:55 am 00:55 Clear 9 -12.8 5 -15.2 82 82 SSE 7 11 30.62 1037 10 16.0934 0 0
1:15 am 01:15 Clear 10 -12.2 6 -14.6 83 83 SSE 8 13 30.62 1037 10 16.0934 0 0
1:35 am 01:35 Clear 11 -11.7 7 -14.1 83 83 SSE 8 13 30.62 1037 10 16.0934 0 0
1:55 am 01:55 Partly Cloudy 11 -11.5 7 -14 82 82 SSE 8 13 30.62 1037 10 16.0934 0 0
2:15 am 02:15 Mostly Cloudy 12 -11.3 7 -13.7 83 83 SSE 9 15 30.62 1037 10 16.0934 0 0
2:35 am 02:35 Partly Cloudy 13 -10.7 8 -13.2 82 82 SSE 14 22 30.62 1037 10 16.0934 0 0
2:55 am 02:55 Clear 13 -10.7 8 -13.2 82 82 SSE 13 20 30.62 1037 10 16.0934 0 0
3:15 am 03:15 Partly Cloudy 13 -10.4 9 -13 81 81 SSE 15 24 30.62 1037 10 16.0934 0 0
3:35 am 03:35 Mostly Cloudy 14 -10.2 9 -13 80 80 SSE 15 24 30.56 1035 10 16.0934 0 0
3:55 am 03:55 Cloudy 14 -10 9 -12.7 81 81 SSE 18 30 30.53 1034 10 16.0934 0 0
4:15 am 04:15 Mostly Cloudy 14 -10.1 9 -13 80 80 SSE 15 24 30.5 1033 10 16.0934 0 0
4:35 am 04:35 Clear 14 -10 9 -12.8 80 80 SE 12 19 30.48 1032 10 16.0934 0 0
4:55 am 04:55 Clear 14 -10 9 -12.7 81 81 SSE 12 19 30.48 1032 10 16.0934 0 0
5:15 am 05:15 Mostly Cloudy 15 -9.7 10 -12.5 80 80 SSE 14 22 30.48 1032 10 16.0934 0 0
5:35 am 05:35 Mostly Cloudy 15 -9.6 10 -12.5 80 80 SSE 14 22 30.45 1031 10 16.0934 0 0
5:55 am 05:55 Cloudy 15 -9.3 10 -12.1 80 80 SSE 14 22 30.42 1030 10 16.0934 0 0
6:15 am 06:15 Cloudy 16 -9.1 10 -12 80 80 SSE 15 24 30.39 1029 10 16.0934 0 0
6:35 am 06:35 Cloudy 15 -9.2 10 -12 80 80 SSE 10 17 30.42 1030 10 16.0934 0 0
6:55 am 06:55 Cloudy 15 -9.2 11 -11.8 82 82 S 7 11 30.45 1031 10 16.0934 0 0
7:15 am 07:15 Mostly Cloudy 15 -9.2 11 -11.9 81 81 S 14 22 30.42 1030 10 16.0934 0 0
7:35 am 07:35 Partly Cloudy 14 -10 10 -12.5 82 82 S 15 24 30.39 1029 10 16.0934 0 0
7:55 am 07:55 Clear 14 -10 10 -12.3 83 83 SSE 12 19 30.39 1029 10 16.0934 0 0
8:15 am 08:15 Sunny 14 -10 10 -12.3 83 83 S 14 22 30.42 1030 10 16.0934 0 0
8:35 am 08:35 Sunny 14 -10.2 10 -12.5 83 83 SSE 6 9 30.39 1029 10 16.0934 0 0
8:55 am 08:55 Sunny 14 -10.2 10 -12.5 83 83 SSE 8 13 30.39 1029 10 16.0934 0 0
9:15 am 09:15 Sunny 14 -10.1 10 -12.5 83 83 S 8 13 30.42 1030 10 16.0934 0 0
9:35 am 09:35 Sunny 15 -9.2 11 -11.6 83 83 S 13 20 30.36 1028 10 16.0934 0 0
9:55 am 09:55 Sunny 17 -8.5 12 -11.2 81 81 S 13 20 30.36 1028 10 16.0934 0 0
10:15 am 10:15 Sunny 18 -7.8 13 -10.8 79 79 S 10 17 30.36 1028 10 16.0934 0 0
10:35 am 10:35 Sunny 19 -7 13 -10.3 78 78 S 13 20 30.36 1028 10 16.0934 0 0
10:55 am 10:55 Sunny 20 -6.4 14 -10 76 76 SSW 13 20 30.3 1026 10 16.0934 0 0
11:15 am 11:15 Sunny 21 -6 14 -10 74 74 SW 15 24 30.3 1026 10 16.0934 0 0
11:35 am 11:35 Sunny 22 -5.5 15 -9.5 74 74 SSW 12 19 30.3 1026 10 16.0934 0 0
11:55 am 11:55 Sunny 23 -5.1 15 -9.2 73 73 SSW 14 22 30.27 1025 10 16.0934 0 0
12:15 pm 12:15 Sunny 24 -4.5 16 -8.8 72 72 SW 13 20 30.27 1025 10 16.0934 0 0
12:35 pm 12:35 Sunny 25 -3.9 17 -8.4 71 71 WSW 8 13 30.24 1024 10 16.0934 0 0
12:55 pm 12:55 Sunny 26 -3.3 18 -8 70 70 WSW 8 13 30.24 1024 10 16.0934 0 0
1:15 pm 13:15 Sunny 27 -3 18 -7.6 71 71 WSW 8 13 30.24 1024 10 16.0934 0 0
1:35 pm 13:35 Sunny 28 -2.5 19 -7.4 69 69 W 8 13 30.24 1024 10 16.0934 0 0
1:55 pm 13:55 Sunny 29 -1.9 19 -7.1 68 68 W 7 11 30.21 1023 10 16.0934 0 0
2:15 pm 14:15 Sunny 29 -1.4 19 -7 66 66 W 7 11 30.18 1022 10 16.0934 0 0
2:35 pm 14:35 Sunny 30 -0.9 20 -6.7 65 65 W 8 13 30.18 1022 10 16.0934 0 0
2:55 pm 14:55 Sunny 31 -0.3 21 -6.2 65 65 W 8 13 30.21 1023 10 16.0934 0 0
3:15 pm 15:15 Sunny 32 0.1 22 -5.6 66 66 WSW 7 11 30.21 1023 10 16.0934 0 0
3:35 pm 15:35 Sunny 32 0 22 -5.4 67 67 WSW 5 7 30.21 1023 10 16.0934 0 0
3:55 pm 15:55 Sunny 31 -0.3 22 -5.5 68 68 WSW 5 7 30.21 1023 10 16.0934 0 0
4:15 pm 16:15 Sunny 30 -0.9 22 -5.7 70 70 WSW 6 9 30.21 1023 10 16.0934 0 0
4:35 pm 16:35 Sunny 30 -1.2 21 -6 70 70 WSW 3 6 30.21 1023 10 16.0934 0 0
4:55 pm 16:55 Sunny 28 -2.4 20 -6.6 73 73 WSW 5 7 30.27 1025 10 16.0934 0 0
5:15 pm 17:15 Sunny 28 -2.1 20 -6.5 72 72 Calm 30.27 1025 10 16.0934 0 0
5:35 pm 17:35 Clear 28 -2.3 20 -6.5 73 73 Calm 30.27 1025 10 16.0934 0 0
5:55 pm 17:55 Clear 27 -2.9 20 -6.8 75 75 Calm 30.27 1025 10 16.0934 0 0
6:15 pm 18:15 Clear 25 -3.9 19 -7.4 77 77 NNW 5 7 30.27 1025 10 16.0934 0 0
6:35 pm 18:35 Clear 22 -5.5 18 -8 83 83 NW 6 9 30.33 1027 10 16.0934 0 0
6:55 pm 18:55 Clear 22 -5.7 17 -8.1 83 83 W 3 6 30.33 1027 10 16.0934 0 0
7:15 pm 19:15 Clear 21 -6.1 17 -8.5 83 83 WNW 6 9 30.36 1028 10 16.0934 0 0
7:35 pm 19:35 Clear 19 -7.2 15 -9.2 86 86 NW 7 11 30.39 1029 10 16.0934 0 0
7:55 pm 19:55 Clear 20 -6.4 16 -9 82 82 NW 6 9 30.33 1027 10 16.0934 0 0
8:15 pm 20:15 Clear 19 -7.4 15 -9.3 86 86 Calm 30.39 1029 10 16.0934 0 0
8:35 pm 20:35 Clear 17 -8.1 14 -9.9 87 87 N 5 7 30.39 1029 10 16.0934 0 0
8:55 pm 20:55 Clear 17 -8.6 13 -10.4 87 87 NW 5 7 30.39 1029 10 16.0934 0 0
9:15 pm 21:15 Clear 16 -8.8 13 -10.8 86 86 Calm 30.39 1029 10 16.0934 0 0
9:35 pm 21:35 Clear 15 -9.3 12 -11.1 87 87 Calm 30.42 1030 10 16.0934 0 0
9:55 pm 21:55 Clear 14 -9.8 11 -11.5 88 88 W 3 6 30.42 1030 10 16.0934 0 0
10:15 pm 22:15 Clear 14 -10 11 -11.6 88 88 NW 6 9 30.42 1030 10 16.0934 0 0
10:35 pm 22:35 Clear 15 -9.6 12 -11.2 88 88 Calm 30.42 1030 10 16.0934 0 0
10:55 pm 22:55 Clear 15 -9.5 12 -11.3 87 87 N 8 13 30.39 1029 10 16.0934 0 0
11:15 pm 23:15 Clear 17 -8.5 13 -10.3 87 87 N 7 11 30.36 1028 10 16.0934 0 0
11:35 pm 23:35 Partly Cloudy 17 -8.3 14 -10.2 86 86 Calm 30.36 1028 10 16.0934 0 0
11:55 pm 23:55 Mostly Cloudy 18 -7.7 15 -9.5 87 87 Calm 30.39 1029 10 16.0934 0 0

Powered by AerisWeather